Weather History for Ouarzazate, Morocco

Change the Weather History Date:

Friday, November 9, 2012

  Actual Average Record
Temperature  
Mean Temperature 69 °F -  
Max Temperature 78 °F 67 °F - ()
Min Temperature 59 °F 42 °F - ()
Cooling Degree Days 4    
Growing Degree Days 19 (Base 50)    
Moisture  
Dew Point 39 °F    
Average Humidity 36    
Maximum Humidity 63    
Minimum Humidity 5    
Precipitation  
Precipitation 0.00 in 0.02 in - ()
Sea Level Pressure  
Sea Level Pressure 30.01 in    
Wind  
Wind Speed 5 mph ()    
Max Wind Speed 15 mph    
Max Gust Speed 29 mph    
Visibility 7.0 miles    
Events      
T = Trace of Precipitation, MM = Missing Value Source: Averaged Metar Reports

Daily Weather History Graph

Daily Weather History Graph

Search for Another Location

Airport:

Trip Planner

Search our weather history database for the weather conditions in past years. The results will help you decide how hot, cold, wet, or windy it might be!

Date:

Astronomy

Nov. 09, 2012 Rise Set
Actual Time 6:49 AM WET 5:33 PM WET
Civil Twilight 6:24 AM WET 5:58 PM WET
Nautical Twilight 5:55 AM WET 6:27 PM WET
Astronomical Twilight 5:26 AM WET 6:55 PM WET
Moon 1:52 AM WET (11/9) 2:21 PM WET (11/9)
Length of Visible Light 11h 34m
Length of Day
10h 43m
Waning Crescent, 25% of the Moon is Illuminated
Nov 9
Waning Crescent
Nov 13
New
Nov 20
First Quarter
Nov 28
Full
Dec 6
Last Quarter

Hourly Weather History & Observations

Time (WET) Temp. Dew Point Humidity Pressure Visibility Wind Dir Wind Speed Gust Speed Precip Events Conditions
12:00 AM 67 °F 47 °F 37%  in 6 mi ESE 5.8 mph - -   Partly Cloudy
12:00 AM 66.2 °F 46.4 °F 49% 30.06 in 6.2 mi Variable 5.8 mph - N/A   Scattered Clouds
1:00 AM 66.2 °F 46.4 °F 49% 30.04 in 6.2 mi Variable 3.5 mph - N/A   Scattered Clouds
2:00 AM 68.0 °F 41.0 °F 37% 30.01 in 6.2 mi SE 5.8 mph - N/A   Partly Cloudy
3:00 AM 67 °F 42 °F 29%  in 6 mi SE 2.3 mph - -   Partly Cloudy
3:00 AM 66.2 °F 42.8 °F 43% 30.01 in 6.2 mi Variable 2.3 mph - N/A   Partly Cloudy
4:00 AM 62.6 °F 46.4 °F 55% 30.01 in 6.2 mi East 4.6 mph - N/A   Partly Cloudy
5:00 AM 62.6 °F 46.4 °F 55% 30.01 in 6.2 mi Variable 2.3 mph - N/A   Partly Cloudy
6:00 AM 64 °F 48 °F 46%  in 6 mi Calm Calm - -   Partly Cloudy
6:00 AM 62.6 °F 48.2 °F 59% 30.01 in 6.2 mi Calm Calm - N/A   Partly Cloudy
7:00 AM 62.6 °F 48.2 °F 59% 30.04 in 6.2 mi Variable 2.3 mph - N/A   Partly Cloudy
8:00 AM 60.8 °F 48.2 °F 63% 30.04 in 6.2 mi Variable 2.3 mph - N/A   Partly Cloudy
9:00 AM 64 °F 48 °F 45%  in 12 mi WSW 2.3 mph - -   Partly Cloudy
9:00 AM 64.4 °F 48.2 °F 56% 30.06 in 6.2 mi Variable 2.3 mph - N/A   Scattered Clouds
10:00 AM 68.0 °F 48.2 °F 49% 30.06 in 6.2 mi East 5.8 mph - N/A   Scattered Clouds
11:00 AM 68.0 °F 48.2 °F 49% 30.06 in 6.2 mi Variable 2.3 mph - N/A   Scattered Clouds
12:00 PM 73 °F 42 °F 22%  in 9 mi South 9.2 mph - -   Partly Cloudy
12:00 PM 73.4 °F 42.8 °F 33% 30.04 in 6.2 mi South 9.2 mph - N/A   Scattered Clouds
1:00 PM 75.2 °F 28.4 °F 18% 29.98 in 6.2 mi SSE 9.2 mph - N/A   Partly Cloudy
2:00 PM 77.0 °F 19.4 °F 12% 29.95 in 6.2 mi South 10.4 mph - N/A   Partly Cloudy
3:00 PM 77 °F 20 °F 5%  in 12 mi South 15.0 mph - -   Scattered Clouds
3:00 PM 77.0 °F 21.2 °F 12% 29.95 in 6.2 mi South 15.0 mph 28.8 mph N/A   Partly Cloudy
4:00 PM 75.2 °F 23.0 °F 14% 29.95 in 6.2 mi SSE 12.7 mph - N/A   Partly Cloudy
5:00 PM 73.4 °F 21.2 °F 14% 29.95 in 6.2 mi South 12.7 mph - N/A   Partly Cloudy
6:00 PM 70 °F 31 °F 13%  in 12 mi SSE 12.7 mph - -   Scattered Clouds
6:00 PM 69.8 °F 30.2 °F 23% 29.95 in 6.2 mi SSE 12.7 mph - N/A   Partly Cloudy
7:00 PM 68.0 °F 28.4 °F 23% 29.98 in 6.2 mi SSE 9.2 mph - N/A   Partly Cloudy
8:00 PM 64.4 °F 33.8 °F 32% 30.01 in 6.2 mi SSE 4.6 mph - N/A   Partly Cloudy
9:00 PM 62 °F 37 °F 28%  in 12 mi WSW 6.9 mph - -   Scattered Clouds
9:00 PM 62.6 °F 37.4 °F 39% 30.01 in 6.2 mi WSW 6.9 mph - N/A   Partly Cloudy
10:00 PM 60.8 °F 37.4 °F 42% 30.01 in 6.2 mi WSW 6.9 mph - N/A   Partly Cloudy
11:00 PM 59.0 °F 35.6 °F 42% 30.01 in 6.2 mi WSW 9.2 mph - N/A   Partly Cloudy